Location: Austin
(30.3000°N, 97.7500°W)
Time: 23:05:35
(UTC-06:00)

ARIANE 5 R/B - Pass Details

Date: 03 December 2025
Orbit: 746 x 792 km, 98.8° (Epoch: 07 December)

Event Time Altitude Azimuth Distance (km) Brightness Sun altitude
Rises 06:31:49 0° 20° (NNE) 3,280 5.8 -8.8°
Reaches altitude 10° 06:34:13 10° 26° (NNE) 2,352 5.1 -8.3°
Maximum altitude 06:39:14 47° 100° (E) 1,035 3.8 -7.3°
Drops below altitude 10° 06:44:13 10° 174° (S) 2,347 5.4 -6.3°
Sets 06:46:36 0° 180° (S) 3,272 6.1 -5.8°
